• In Schweiz
  • Länderverzeichnis
  • Für 7 Tage
  • Wassertemperatur
  • Satellitenkarten
  • Wetterkarte
  • Widgets
  • user-avatar
    Anmelden

    Stündliche Wetter Teheran

    Heute, 21 Oktober, Sonntag

    Zeit Temperatur Niederschläge Wind Luftdruck Luftfeuchtigkeit
    00:00 +19°C° 0 mm 1 m/S 666 mmHg 47%
    01:00 +19°C° 0 mm 1 m/S 666 mmHg 47%
    02:00 +19°C° 0 mm 1 m/S 665 mmHg 48%
    03:00 +18°C° 0 mm 1 m/S 665 mmHg 49%
    04:00 +18°C° 0 mm 1 m/S 665 mmHg 50%
    05:00 +16°C° 0 mm 0 m/S 665 mmHg 50%
    06:00 +15°C° 0 mm 0 m/S 665 mmHg 51%
    07:00 +17°C° 0 mm 0 m/S 666 mmHg 47%
    08:00 +20°C° 0 mm 1 m/S 666 mmHg 43%
    09:00 +21°C° 0 mm 1 m/S 667 mmHg 39%
    10:00 +22°C° 0 mm 1 m/S 667 mmHg 38%
    11:00 +21°C° 0 mm 2 m/S 667 mmHg 37%
    12:00 +23°C° 0 mm 2 m/S 667 mmHg 36%
    13:00 +23°C° 0 mm 2 m/S 667 mmHg 35%
    14:00 +24°C° 0 mm 2 m/S 667 mmHg 35%
    15:00 +24°C° 0 mm 3 m/S 667 mmHg 35%
    16:00 +22°C° 0 mm 3 m/S 667 mmHg 36%
    17:00 +23°C° 0 mm 2 m/S 667 mmHg 37%
    18:00 +23°C° 0 mm 2 m/S 667 mmHg 39%
    19:00 +22°C° 0 mm 1 m/S 667 mmHg 40%
    20:00 +22°C° 0 mm 1 m/S 667 mmHg 41%
    21:00 +21°C° 0 mm 1 m/S 666 mmHg 42%
    22:00 +21°C° 0 mm 1 m/S 666 mmHg 43%
    23:00 +21°C° 0 mm 1 m/S 666 mmHg 44%

    Morgen, 22 Oktober, Montag

    Zeit Temperatur Niederschläge Wind Luftdruck Luftfeuchtigkeit
    00:00 +18°C° 0 mm 0 m/S 666 mmHg 45%
    01:00 +20°C° 0 mm 1 m/S 666 mmHg 46%
    02:00 +20°C° 0 mm 1 m/S 666 mmHg 47%
    03:00 +19°C° 0 mm 1 m/S 666 mmHg 47%
    04:00 +19°C° 0 mm 1 m/S 666 mmHg 48%
    05:00 +19°C° 0 mm 1 m/S 666 mmHg 48%
    06:00 +19°C° 0 mm 1 m/S 666 mmHg 48%
    07:00 +20°C° 0 mm 1 m/S 666 mmHg 44%
    08:00 +21°C° 0 mm 1 m/S 667 mmHg 40%
    09:00 +23°C° 0 mm 1 m/S 667 mmHg 35%
    10:00 +23°C° 0 mm 1 m/S 667 mmHg 34%
    11:00 +24°C° 0 mm 1 m/S 667 mmHg 32%
    12:00 +25°C° 0 mm 2 m/S 667 mmHg 31%
    13:00 +25°C° 0.1 mm 2 m/S 667 mmHg 30%
    14:00 +25°C° 0.1 mm 2 m/S 667 mmHg 30%
    15:00 +25°C° 0.1 mm 2 m/S 667 mmHg 29%
    16:00 +25°C° 0 mm 2 m/S 667 mmHg 31%
    17:00 +24°C° 0 mm 2 m/S 666 mmHg 33%
    18:00 +23°C° 0 mm 1 m/S 666 mmHg 35%
    19:00 +23°C° 0 mm 1 m/S 666 mmHg 36%
    20:00 +23°C° 0 mm 1 m/S 666 mmHg 37%
    21:00 +22°C° 0 mm 1 m/S 666 mmHg 38%
    22:00 +22°C° 0 mm 1 m/S 666 mmHg 39%
    23:00 +22°C° 0 mm 1 m/S 666 mmHg 40%

    übermorgen, 23 Oktober, Dienstag

    Zeit Temperatur Niederschläge Wind Luftdruck Luftfeuchtigkeit
    00:00 +21°C° 0 mm 1 m/S 666 mmHg 41%
    01:00 +21°C° 0 mm 1 m/S 666 mmHg 43%
    02:00 +21°C° 0 mm 1 m/S 666 mmHg 44%
    03:00 +20°C° 0 mm 1 m/S 666 mmHg 45%
    04:00 +20°C° 0 mm 1 m/S 666 mmHg 46%
    05:00 +19°C° 0 mm 1 m/S 666 mmHg 47%
    06:00 +19°C° 0 mm 1 m/S 666 mmHg 48%
    07:00 +20°C° 0 mm 1 m/S 666 mmHg 44%
    08:00 +22°C° 0 mm 1 m/S 667 mmHg 40%
    09:00 +23°C° 0 mm 1 m/S 667 mmHg 37%
    10:00 +23°C° 0 mm 2 m/S 667 mmHg 35%
    11:00 +24°C° 0 mm 2 m/S 667 mmHg 33%
    12:00 +25°C° 0 mm 2 m/S 667 mmHg 31%
    13:00 +25°C° 0 mm 2 m/S 666 mmHg 30%
    14:00 +25°C° 0 mm 2 m/S 666 mmHg 29%
    15:00 +25°C° 0 mm 2 m/S 666 mmHg 28%
    16:00 +25°C° 0 mm 2 m/S 666 mmHg 30%
    17:00 +24°C° 0 mm 2 m/S 665 mmHg 32%
    18:00 +23°C° 0 mm 2 m/S 665 mmHg 34%
    19:00 +23°C° 0 mm 1 m/S 665 mmHg 34%
    20:00 +23°C° 0 mm 1 m/S 665 mmHg 35%
    21:00 +22°C° 0 mm 1 m/S 665 mmHg 35%
    22:00 +22°C° 0 mm 1 m/S 665 mmHg 36%
    23:00 +22°C° 0 mm 1 m/S 665 mmHg 37%

    24 Oktober, Mittwoch

    Zeit Temperatur Niederschläge Wind Luftdruck Luftfeuchtigkeit
    00:00 +21°C° 0 mm 1 m/S 665 mmHg 38%
    01:00 +21°C° 0 mm 1 m/S 665 mmHg 39%
    02:00 +21°C° 0 mm 1 m/S 665 mmHg 41%
    03:00 +20°C° 0 mm 1 m/S 664 mmHg 42%
    04:00 +20°C° 0 mm 1 m/S 664 mmHg 43%
    05:00 +20°C° 0 mm 1 m/S 664 mmHg 44%
    06:00 +19°C° 0 mm 1 m/S 664 mmHg 46%
    07:00 +21°C° 0 mm 1 m/S 665 mmHg 42%
    08:00 +22°C° 0 mm 1 m/S 665 mmHg 38%
    09:00 +23°C° 0 mm 2 m/S 665 mmHg 34%
    10:00 +24°C° 0 mm 2 m/S 665 mmHg 32%
    11:00 +25°C° 0 mm 3 m/S 665 mmHg 30%
    12:00 +25°C° 0 mm 3 m/S 665 mmHg 28%
    13:00 +25°C° 0 mm 3 m/S 664 mmHg 28%
    14:00 +26°C° 0 mm 3 m/S 664 mmHg 28%
    15:00 +26°C° 0 mm 3 m/S 664 mmHg 28%
    16:00 +25°C° 0 mm 2 m/S 664 mmHg 30%
    17:00 +24°C° 0 mm 2 m/S 663 mmHg 31%
    18:00 +24°C° 0 mm 1 m/S 663 mmHg 33%
    19:00 +24°C° 0 mm 1 m/S 663 mmHg 34%
    20:00 +23°C° 0 mm 2 m/S 663 mmHg 34%
    21:00 +23°C° 0 mm 2 m/S 663 mmHg 35%
    22:00 +23°C° 0 mm 2 m/S 663 mmHg 35%
    23:00 +21°C° 0 mm 2 m/S 663 mmHg 36%

    25 Oktober, Donnerstag

    Zeit Temperatur Niederschläge Wind Luftdruck Luftfeuchtigkeit
    00:00 +22°C° 0 mm 1 m/S 663 mmHg 37%
    01:00 +22°C° 0 mm 1 m/S 662 mmHg 38%
    02:00 +21°C° 0 mm 1 m/S 662 mmHg 39%
    03:00 +21°C° 0 mm 1 m/S 662 mmHg 41%
    04:00 +21°C° 0 mm 1 m/S 662 mmHg 41%
    05:00 +20°C° 0 mm 1 m/S 662 mmHg 42%
    06:00 +20°C° 0 mm 1 m/S 662 mmHg 42%
    07:00 +21°C° 0 mm 1 m/S 663 mmHg 38%
    08:00 +23°C° 0 mm 2 m/S 663 mmHg 34%
    09:00 +24°C° 0 mm 2 m/S 664 mmHg 30%
    10:00 +25°C° 0 mm 2 m/S 664 mmHg 29%
    11:00 +26°C° 0 mm 3 m/S 663 mmHg 28%
    12:00 +27°C° 0 mm 3 m/S 663 mmHg 27%
    13:00 +27°C° 0 mm 3 m/S 663 mmHg 26%
    14:00 +27°C° 0 mm 3 m/S 662 mmHg 26%
    15:00 +27°C° 0 mm 3 m/S 662 mmHg 26%
    16:00 +26°C° 0 mm 3 m/S 662 mmHg 28%
    17:00 +26°C° 0 mm 3 m/S 662 mmHg 30%
    18:00 +25°C° 0 mm 3 m/S 662 mmHg 32%
    19:00 +24°C° 0 mm 3 m/S 662 mmHg 33%
    20:00 +24°C° 0 mm 2 m/S 662 mmHg 34%
    21:00 +24°C° 0 mm 2 m/S 662 mmHg 36%
    22:00 +23°C° 0 mm 2 m/S 662 mmHg 36%
    23:00 +23°C° 0 mm 2 m/S 662 mmHg 37%

    26 Oktober, Freitag

    Zeit Temperatur Niederschläge Wind Luftdruck Luftfeuchtigkeit
    00:00 +21°C° 0 mm 2 m/S 662 mmHg 38%
    01:00 +21°C° 0 mm 2 m/S 662 mmHg 39%
    02:00 +21°C° 0 mm 2 m/S 662 mmHg 40%
    03:00 +20°C° 0 mm 2 m/S 662 mmHg 41%
    04:00 +20°C° 0 mm 2 m/S 663 mmHg 43%
    05:00 +20°C° 0 mm 2 m/S 663 mmHg 45%
    06:00 +20°C° 0 mm 2 m/S 663 mmHg 47%
    07:00 +21°C° 0 mm 2 m/S 663 mmHg 44%
    08:00 +24°C° 0 mm 3 m/S 664 mmHg 40%
    09:00 +25°C° 0 mm 3 m/S 664 mmHg 37%
    10:00 +26°C° 0 mm 3 m/S 664 mmHg 36%
    11:00 +26°C° 0 mm 3 m/S 664 mmHg 34%
    12:00 +27°C° 0 mm 4 m/S 664 mmHg 33%
    13:00 +27°C° 0.1 mm 4 m/S 663 mmHg 34%
    14:00 +27°C° 0.1 mm 4 m/S 663 mmHg 35%
    15:00 +27°C° 0.1 mm 4 m/S 663 mmHg 36%
    16:00 +26°C° 0.2 mm 4 m/S 663 mmHg 38%
    17:00 +25°C° 0.2 mm 4 m/S 663 mmHg 40%
    18:00 +25°C° 0.2 mm 3 m/S 664 mmHg 42%
    19:00 +23°C° 0.3 mm 4 m/S 664 mmHg 44%
    20:00 +23°C° 0.3 mm 4 m/S 664 mmHg 46%
    21:00 +23°C° 0.3 mm 4 m/S 664 mmHg 48%
    22:00 +22°C° 0.6 mm 5 m/S 665 mmHg 51%
    23:00 +22°C° 0.6 mm 5 m/S 665 mmHg 55%
    Mehr zeigen